sat.trackr.live / text

‹ back to catalog

UNKNOWN

NORAD 81228

UNKNOWN UNKNOWN UNKNOWN

§ Identity

Operator
Country
Launch date
Launch site
Launch vehicle
Mass (kg)
RCS (m²)

External: N2YO · Heavens-Above

§ Orbital elements

Epoch: 2026-09-17T16:54:40.256640Z

Period
99.73 min
Inclination
70.5199°
Eccentricity
0.0059372
Mean motion
14.43839153 rev/d
Perigee alt
703.5 km
Apogee alt
788.1 km
Semi-major
7,124.0 km
B*
8.5983e-4
RAAN
8.9569°
Arg perigee
303.2220°
Mean anomaly
56.3231°
Rev number
66,632

§ Raw data

UNKNOWN1 81228U          26260.70463260  .00002939  00000+0  85983-3 0  99932 81228  70.5199   8.9569 0059372 303.2220  56.3231 14.43839153666323

JSON: /api/v1/satellites/81228 · /tle

For live sub-satellite position, see the globe view (requires WebGL).

§ Visibility from observer

Set your observer location to see the next 7 days of passes ≥ 10°. The values pass through the URL so the page stays shareable.

No JS? Fill the form by hand. The geolocation button needs JavaScript.